Domov               UVHVVR             MKGP            O straneh              
ZDRAVSTVENO VARSTVO RASTLIN
  MREŽA AGROMET. POSTAJ
 ► PROGNOSTIČNA OBVESTILA
AGROMETEOROLOŠKI PODATKI -
ARSO
OBVLADOVANJE TVEGANJ ZARADI
NEUGODNIH VREMENSKIH RAZMER
  ► NARAVNE NESREČE
  ► SUŠA/MOČA
  ► NAMAKANJE
  ► ŽLED (gozdarstvo)
KARTOGRAFSKI PRIKAZI
SPLETNE POVEZAVE
PROJEKTI IN PUBLIKACIJE

AGROMETEOROLOŠKA MREŽA: VREMENSKE POSTAJE IN FENOLOŠKA OPAZOVANJA

Pregled podatkov za lokacijo Artiče, meteorološka postaja 42800

Pregled senzorjev na lokaciji

ID Ime Zadnja
vrednost
Datum
zadnje
spremembe
Tip
senzorja
2448 Omočenost lista (U) 0 U 19.2.2018 14:30 A730WET
3778 Padavine (mm) 0 mm 19.2.2018 14:30 Rain-O-Matic
2447 Relativna vlaga 2 m (% RH) 60,3 % RH 19.2.2018 14:30 50YA
2446 Temperatura 2 m (°C) 2,58 °C 19.2.2018 14:30 50YA

Pregled podatkov zadnjih 24 ur

Zap.
št.
Datum in čas Artiče
Omočenost
lista
Padavine Relativna
vlaga
2
m
Temperatura
2
m
1 19.2.2018 15:00
2 19.2.2018 14:30 0 0 60,3 2,6
3 19.2.2018 14:00 0 0 59,2 2,4
4 19.2.2018 13:30 0 0 60,2 2,2
5 19.2.2018 13:00 0 0 61 2,3
6 19.2.2018 12:30 0 0 59,9 2,5
7 19.2.2018 12:00 0 0 61,4 2,2
8 19.2.2018 11:30 0 0 65,1 1,9
9 19.2.2018 11:00 0 0 67,7 1,1
10 19.2.2018 10:30 0 0 68,8 0,8
11 19.2.2018 10:00 0 0 69 0,7
12 19.2.2018 09:30 0 0 69,7 0,6
13 19.2.2018 09:00 0 0 69,8 0,5
14 19.2.2018 08:30 0 0 70,5 0,2
15 19.2.2018 08:00 0 0 71,4 0,1
16 19.2.2018 07:30 0 0 71,4 0
17 19.2.2018 07:00 0 0 70,9 0
18 19.2.2018 06:30 0 0 70,6 0,1
19 19.2.2018 06:00 0 0 70,2 0,2
20 19.2.2018 05:30 0 0 70,7 0,2
21 19.2.2018 05:00 0 0 70,7 0,2
22 19.2.2018 04:30 0 0 70 0,4
23 19.2.2018 04:00 0 0 69,2 0,4
24 19.2.2018 03:30 0 0 68,9 0,4
25 19.2.2018 03:00 0 0 66,6 0,6
26 19.2.2018 02:30 0 0 66,4 0,7
27 19.2.2018 02:00 0 0 67,8 0,8
28 19.2.2018 01:30 0 0 70,2 0,9
29 19.2.2018 01:00 0 0 70,9 1
30 19.2.2018 00:30 0 0 71,3 1,2
31 19.2.2018 00:00 0 0 71,3 1,3
32 18.2.2018 23:30 0 0 71,2 1,4
33 18.2.2018 23:00 0 0 70 1,5
34 18.2.2018 22:30 3 0 69,6 1,6
35 18.2.2018 22:00 10 0 71 1,7
36 18.2.2018 21:30 10 0 71,8 1,8
37 18.2.2018 21:00 10 0 73 1,9
38 18.2.2018 20:30 10 0 78 1,8
39 18.2.2018 20:00 10 0 79,2 1,8
40 18.2.2018 19:30 10 0 77,6 2
41 18.2.2018 19:00 10 0 79,9 1,8
42 18.2.2018 18:30 10 0 80,2 1,9
43 18.2.2018 18:00 10 0 79 2,1
44 18.2.2018 17:30 5 0 84 1,8
45 18.2.2018 17:00 4 0 85,8 1,8
46 18.2.2018 16:30 1 0 79,2 2,5
47 18.2.2018 16:00 0 0 75,4 2,9
48 18.2.2018 15:30 0 0 75,6 3,1
© 2011 Ministrstvo za kmetijstvo, gozdarstvo in prehrano. Vse pravice pridržane.